Torna al catalogo

KUIPER-00451

AttivoComunicazioniLEO
NORAD 68945·PAYLOAD·🇺🇸 United States

Lanciato Apr 30, 2026 da Guiana Space Centre

Loading…

Prossimi Passaggi (prossime 24 ore)

TLE

AggiornatoSource: CelesTrak SupGP

Epoca: Sep 14, 2026, 18:57 UTC

1 68945C 26098AC  26257.78971065  .00008323  00000+0  10898-2 0  2572
2 68945  51.9002  26.9341 0000557 119.2686  37.8825 14.79912433    13

Traccia KUIPER-00451 in tempo reale con AllMySat

Download on the App Store